KE9LZ-9 Weather Reports


time (UTC)temp
C
wind
direction
speed
KPH
gust
KPH
rain 1hr
cm
rain 24hr
cm
rain mn
cm
humidity
%
barometer
mb
20260904141004 17 328 1.6 3.2 0.00 0.10 0.05 99 1015.0
20260904135004 17 357 3.2 4.8 0.00 0.10 0.05 99 1014.9
20260904133004 17 18 1.6 4.8 0.00 0.10 0.05 99 1015.1
20260904132004 17 50 1.6 4.8 0.00 0.10 0.05 99 1014.9
20260904131004 17 66 1.6 4.8 0.00 0.10 0.05 99 1014.9
20260904130004 17 22 1.6 3.2 0.00 0.10 0.05 99 1014.8
20260904125004 17 24 1.6 3.2 0.00 0.10 0.05 99 1014.6
20260904124003 17 348 0.0 4.8 0.00 0.10 0.05 99 1014.2
20260904123004 17 11 1.6 4.8 0.00 0.10 0.05 99 1014.1
20260904122004 17 7 1.6 4.8 0.00 0.10 0.05 99 1014.2
20260904121003 17 358 1.6 4.8 0.00 0.10 0.05 99 1014.4
20260904115004 17 9 1.6 4.8 0.00 0.10 0.05 99 1014.5
20260904114004 17 325 1.6 3.2 0.00 0.10 0.05 99 1014.3
20260904113004 17 356 1.6 3.2 0.00 0.10 0.05 99 1013.7
20260904112003 17 27 1.6 3.2 0.00 0.10 0.05 99 1013.6
20260904111004 17 321 0.0 3.2 0.00 0.10 0.05 99 1013.7
20260904110004 17 352 1.6 3.2 0.00 0.10 0.05 99 1013.9
20260904105004 17 26 1.6 4.8 0.00 0.10 0.05 99 1013.8
20260904104004 17 15 1.6 3.2 0.00 0.10 0.05 99 1013.7
20260904103004 17 39 1.6 3.2 0.00 0.10 0.05 99 1013.8
20260904101004 17 2 1.6 3.2 0.00 0.10 0.05 99 1014.2
20260904100004 17 13 1.6 4.8 0.00 0.10 0.05 99 1014.0
20260904095004 17 84 1.6 4.8 0.00 0.10 0.05 99 1014.3
20260904094004 17 40 3.2 4.8 0.00 0.10 0.05 99 1014.3
20260904093004 17 96 1.6 4.8 0.00 0.10 0.05 99 1014.6
20260904092004 16 23 1.6 4.8 0.00 0.10 0.05 99 1014.7
20260904091004 16 13 1.6 4.8 0.00 0.10 0.05 99 1014.4
20260904090004 17 39 1.6 4.8 0.00 0.10 0.05 99 1015.4
20260904083004 17 31 1.6 3.2 0.00 0.10 0.05 99 1014.7
20260904082004 17 23 1.6 3.2 0.00 0.10 0.05 99 1014.4
20260904081004 17 1 1.6 3.2 0.00 0.10 0.05 99 1014.1
20260904080004 17 6 1.6 3.2 0.00 0.10 0.05 99 1014.3
20260904075004 17 30 1.6 3.2 0.00 0.10 0.05 99 1014.4
20260904074004 17 344 1.6 3.2 0.00 0.10 0.05 99 1014.7
20260904073004 17 348 1.6 3.2 0.03 0.10 0.05 99 1014.5
20260904072004 17 288 1.6 3.2 0.03 0.10 0.05 99 1014.2
20260904070004 17 22 1.6 3.2 0.03 0.10 0.05 99 1014.1
20260904065004 17 5 1.6 3.2 0.03 0.10 0.05 99 1014.3
20260904064004 17 0 0.0 3.2 0.03 0.08 0.05 99 1014.3
20260904063003 17 350 1.6 3.2 0.03 0.05 0.03 99 1013.8
20260904062003 17 11 1.6 3.2 0.03 0.05 0.03 99 1013.5
20260904061004 17 19 0.0 4.8 0.03 0.05 0.03 99 1013.7
20260904055004 17 5 1.6 3.2 0.03 0.05 0.03 99 1014.8
20260904054004 17 53 1.6 3.2 0.00 0.05 0.00 99 1014.5
20260904053004 17 32 3.2 3.2 0.00 0.05 0.00 99 1014.7
20260904052003 17 28 1.6 3.2 0.00 0.05 0.00 99 1014.9
20260904051004 17 0 3.2 3.2 0.00 0.05 0.00 99 1014.7
20260904050004 17 13 1.6 3.2 0.00 0.05 0.00 99 1015.1
20260904045004 17 314 3.2 3.2 0.00 0.05 0.05 99 1015.0
20260904044004 17 23 1.6 3.2 0.00 0.05 0.05 99 1015.1
20260904043004 17 334 1.6 3.2 0.00 0.05 0.05 99 1015.3
20260904042004 17 339 1.6 1.6 0.00 0.05 0.05 99 1015.4
20260904041004 17 347 0.0 3.2 0.00 0.05 0.05 99 1015.4
20260904040004 17 315 0.0 3.2 0.00 0.05 0.05 99 1015.4
20260904035004 17 22 1.6 3.2 0.00 0.05 0.05 99 1015.2
20260904034003 17 17 1.6 3.2 0.00 0.05 0.05 99 1015.4
20260904033004 17 45 1.6 3.2 0.00 0.05 0.05 99 1014.9
20260904032004 17 46 1.6 3.2 0.00 0.05 0.05 99 1015.3
20260904031004 17 11 1.6 3.2 0.00 0.05 0.05 99 1015.2
20260904025004 17 341 1.6 3.2 0.00 0.05 0.05 99 1015.6
20260904024005 17 34 0.0 3.2 0.00 0.05 0.05 99 1015.4
20260904023003 17 303 1.6 3.2 0.00 0.05 0.05 99 1015.7
20260904022004 17 21 0.0 1.6 0.00 0.05 0.05 99 1015.5
20260904021003 18 24 1.6 1.6 0.00 0.05 0.05 99 1015.1
20260904020004 18 0 0.0 1.6 0.00 0.05 0.05 99 1015.4
20260904015004 18 355 1.6 1.6 0.00 0.05 0.05 99 1015.5
20260904014004 18 359 0.0 1.6 0.00 0.05 0.05 99 1015.6
20260904013004 18 11 1.6 1.6 0.00 0.05 0.05 99 1015.4
20260904011004 18 312 0.0 1.6 0.00 0.05 0.05 98 1015.3
20260904005003 19 355 0.0 1.6 0.00 0.05 0.05 97 1014.9
20260904004004 19 29 0.0 1.6 0.00 0.05 0.05 97 1014.8
20260904002004 20 11 0.0 3.2 0.00 0.05 0.05 95 1015.0
20260903235003 20 73 1.6 3.2 0.00 0.05 0.05 93 1014.6
20260903234004 20 267 1.6 4.8 0.00 0.05 0.05 93 1014.6
20260903233003 21 48 1.6 3.2 0.00 0.05 0.05 91 1014.6
20260903232004 21 344 0.0 3.2 0.00 0.05 0.05 91 1014.7
20260903231004 21 315 0.0 3.2 0.00 0.05 0.05 89 1014.7
20260903230003 21 12 0.0 3.2 0.00 0.05 0.05 89 1014.6
20260903224004 21 10 1.6 3.2 0.00 0.05 0.05 87 1014.1
20260903223003 22 6 1.6 4.8 0.00 0.05 0.05 88 1014.2
20260903222003 22 103 3.2 4.8 0.00 0.05 0.05 84 1014.2
20260903221003 22 29 3.2 4.8 0.00 0.05 0.05 84 1014.3
20260903220004 22 109 1.6 4.8 0.00 0.05 0.05 87 1014.5
20260903215004 22 68 1.6 4.8 0.00 0.05 0.05 86 1014.5
20260903214004 22 81 3.2 4.8 0.00 0.05 0.05 87 1014.4
20260903212004 22 48 3.2 4.8 0.00 0.05 0.05 88 1014.2
20260903211003 22 311 3.2 4.8 0.00 0.05 0.05 89 1014.5
20260903210003 21 62 1.6 4.8 0.00 0.05 0.05 90 1014.5
20260903205004 21 82 3.2 8.0 0.00 0.05 0.05 91 1014.4
20260903203004 21 58 1.6 8.0 0.00 0.05 0.05 91 1014.3
20260903201004 21 195 1.6 8.0 0.00 0.05 0.05 92 1014.8
20260903195003 21 262 1.6 8.0 0.00 0.05 0.05 89 1014.7
20260903194004 21 48 3.2 8.0 0.00 0.05 0.05 91 1014.9
20260903193004 22 300 0.0 3.2 0.00 0.05 0.05 89 1015.2
20260903192004 21 160 1.6 4.8 0.00 0.05 0.05 91 1014.9
20260903191004 21 34 1.6 4.8 0.00 0.05 0.05 92 1014.9
20260903190004 21 41 1.6 4.8 0.00 0.05 0.05 93 1015.0
20260903185003 21 328 1.6 9.7 0.00 0.05 0.05 91 1015.3
20260903184004 21 30 1.6 11.3 0.00 0.05 0.05 89 1015.0
20260903183004 22 337 3.2 16.1 0.00 0.05 0.05 89 1014.8
20260903182004 22 83 1.6 8.0 0.00 0.05 0.05 91 1014.5
20260903181004 21 91 3.2 11.3 0.00 0.05 0.05 94 1014.4
20260903180003 21 26 1.6 8.0 0.03 0.05 0.05 96 1014.6
20260903175003 20 81 3.2 4.8 0.05 0.05 0.05 97 1014.6
20260903174003 20 338 3.2 8.0 0.05 0.05 0.05 98 1014.6
20260903173004 20 104 1.6 3.2 0.05 0.05 0.05 99 1014.6
20260903172004 19 22 1.6 3.2 0.05 0.05 0.05 99 1014.4
20260903171003 19 302 1.6 3.2 0.03 0.03 0.03 99 1015.3
20260903170004 19 345 1.6 4.8 0.03 0.03 0.03 99 1015.2
20260903165004 18 294 1.6 3.2 0.00 0.00 0.00 99 1015.6
20260903164003 18 12 3.2 3.2 0.00 0.00 0.00 98 1015.6
20260903163003 19 314 1.6 3.2 0.00 0.00 0.00 98 1015.9
20260903162004 19 348 1.6 3.2 0.00 0.00 0.00 97 1015.4
20260903161003 19 336 3.2 3.2 0.00 0.00 0.00 97 1015.5
20260903160004 19 310 0.0 1.6 0.00 0.00 0.00 96 1015.3
20260903155004 19 340 0.0 1.6 0.00 0.00 0.00 96 1015.3
20260903153004 19 348 1.6 1.6 0.00 0.00 0.00 93 1015.6
20260903152003 20 26 1.6 3.2 0.00 0.00 0.00 92 1015.4
20260903151004 20 312 3.2 3.2 0.00 0.00 0.00 92 1015.1
20260903150004 20 14 0.0 3.2 0.00 0.00 0.00 92 1015.1
20260903144004 20 299 1.6 3.2 0.00 0.00 0.00 91 1014.7
20260903143004 20 348 1.6 4.8 0.00 0.00 0.00 91 1014.7
20260903142004 20 53 1.6 3.2 0.00 0.00 0.00 91 1014.5